sat.trackr.live / text

‹ back to catalog

STARLINK-30702

NORAD 57955 · 2023-148W

PAYLOAD ACTIVE UNKNOWN

§ Identity

Operator
Country
US
Launch date
2023-09-25
Launch site
AFWTR
Launch vehicle
Mass (kg)
RCS (m²)

Purposes: comms

External: N2YO · Heavens-Above · Gunter

§ Orbital elements

Epoch: 2026-09-20T11:32:15.342432Z

Period
93.85 min
Inclination
53.1620°
Eccentricity
0.0000905
Mean motion
15.34388052 rev/d
Perigee alt
462.1 km
Apogee alt
463.4 km
Semi-major
6,840.9 km
B*
1.6227e-5
RAAN
186.0257°
Arg perigee
87.2070°
Mean anomaly
272.9036°
Rev number
16,843

§ Raw data

STARLINK-307021 57955U 23148W   26263.48073313  .00000172  00000+0  16227-4 0  99982 57955  53.1620 186.0257 0000905  87.2070 272.9036 15.34388052168437

JSON: /api/v1/satellites/57955 · /tle

For live sub-satellite position, see the globe view (requires WebGL).

§ Visibility from observer

Set your observer location to see the next 7 days of passes ≥ 10°. The values pass through the URL so the page stays shareable.

No JS? Fill the form by hand. The geolocation button needs JavaScript.